Wetbulb
73.05 72.79 73.30 72.38 71.41 70.47 69.99 69.49 69.45 69.45 70.16 70.75 70.90 72.20 73.18 71.74 71.27 71.54 72.56 72.47 73.45 73.65 73.38 73.43 73.76 73.81 73.85 73.86 74.04 74.26 73.41 73.51 73.97
72.82 72.02 72.96 72.10 71.16 70.46 69.58 68.86 68.63 68.58 69.03 69.64 70.04 71.34 72.13 69.32 69.11 70.48 71.36 71.64 72.91 73.23 73.11 72.98 72.94 72.80 73.16 73.55 73.23 72.56 72.94 72.94 73.16
72.50 72.35 72.27 71.73 70.67 69.44 68.83 68.40 68.11 67.71 68.26 68.44 68.53 69.38 71.60 68.94 68.79 69.50 70.76 71.77 72.31 72.76 72.76 72.54 72.46 72.43 72.67 72.73 72.30 71.46 71.64 71.96 72.36
72.31 72.15 71.79 71.30 69.64 68.47 67.81 67.69 67.52 67.47 67.52 67.64 67.95 69.81 70.41 67.02 68.61 67.93 68.64 71.13 71.07 71.81 71.97 71.86 71.82 71.90 72.20 72.25 72.05 71.12 70.93 70.83 70.99
71.95 71.89 71.34 70.50 68.82 67.48 66.64 66.78 67.01 66.95 66.72 66.75 67.03 68.92 69.52 66.54 66.92 66.51 67.13 69.01 69.30 70.26 70.41 70.65 70.78 71.07 71.27 71.44 71.77 71.70 71.59 70.85 70.80
70.49 70.68 70.89 69.14 67.64 66.63 66.13 66.32 66.22 66.44 65.59 64.58 65.38 67.85 65.49 65.56 65.46 65.46 68.05 67.63 68.02 68.13 68.12 68.47 68.83 69.54 70.22 70.50 70.51 70.43 70.46 70.35 70.19
69.43 69.15 70.51 67.95 66.64 66.07 66.11 65.64 65.98 65.93 63.57 64.94 65.75 64.71 65.27 64.78 64.41 64.73 67.17 66.30 66.78 66.63 66.30 66.11 66.21 66.55 67.07 67.72 68.25 68.80 69.02 69.34 69.68
67.43 66.44 67.84 66.13 66.06 63.31 63.16 64.00 63.78 62.98 63.38 64.91 64.40 64.19 64.70 64.14 63.79 65.08 66.48 65.48 65.99 65.94 65.32 65.05 65.09 65.29 65.49 65.46 65.55 65.70 66.18 67.09 67.74
65.48 64.99 66.15 65.25 62.05 59.21 59.67 61.49 62.97 62.82 63.23 63.37 62.82 63.23 63.52 62.61 62.52 64.25 66.24 65.48 65.32 65.27 64.93 64.51 64.31 64.19 64.33 64.21 64.02 64.12 64.17 64.40 64.82
64.30 63.84 64.37 63.52 58.92 57.22 58.33 60.23 61.00 61.47 61.88 61.82 60.77 61.45 61.35 61.15 61.65 62.50 65.58 65.50 64.56 64.53 64.31 64.02 63.72 63.39 63.14 62.90 62.93 62.86 62.86 63.01 63.20
63.39 62.76 61.02 59.83 57.17 57.45 57.77 57.72 57.86 58.17 58.89 58.89 59.17 59.19 59.88 60.11 60.58 60.84 61.88 64.52 64.11 63.35 63.32 63.22 62.96 62.58 62.31 61.89 61.55 61.58 61.56 61.84 61.89
62.42 61.23 58.39 57.00 57.01 56.82 57.23 57.08 57.32 57.13 57.02 56.76 57.27 57.67 58.01 59.05 59.49 59.72 59.79 59.95 62.23 62.13 61.51 61.63 61.70 61.77 61.35 60.98 60.71 60.37 60.31 60.40 60.27
61.06 59.09 56.83 56.93 57.09 57.50 56.85 56.68 56.65 56.62 56.47 55.96 56.25 56.30 56.82 56.74 57.47 58.45 58.60 59.33 58.05 59.06 60.15 60.51 60.52 60.54 60.32 60.00 59.62 59.37 59.11 59.20 59.24
58.49 57.58 57.27 56.96 57.32 56.71 57.13 56.61 56.46 55.68 55.98 55.85 56.27 56.37 56.20 56.19 56.11 56.23 57.35 57.16 58.90 56.80 56.64 57.83 58.63 58.53 59.12 59.46 59.05 58.56 58.54 58.45 58.30
57.76 57.81 57.43 56.62 57.50 57.42 57.64 56.19 56.64 56.12 55.72 53.86 54.60 55.78 56.43 56.60 56.41 55.91 56.05 56.52 57.25 57.66 57.78 57.33 55.73 56.87 57.62 57.83 57.93 57.79 57.77 57.34 57.12
57.78 57.82 56.75 57.65 57.43 57.17 57.70 56.97 56.03 56.09 56.11 54.48 54.66 54.89 55.43 55.41 55.93 56.25 55.51 56.28 56.06 56.31 56.84 56.91 56.58 54.82 55.88 54.93 55.10 55.73 56.36 56.71 56.58
56.45 56.56 56.36 54.83 57.76 57.55 57.42 58.31 56.46 56.64 56.69 53.78 54.49 51.19 52.42 53.99 54.77 55.24 55.19 54.63 55.57 54.71 54.48 54.20 54.54 56.21 54.88 52.80 51.94 52.88 54.07 54.73 54.73
55.44 55.80 55.38 56.30 58.41 57.99 58.51 58.17 58.63 55.68 56.78 55.29 54.09 50.56 49.06 52.47 54.01 53.33 54.01 54.11 54.72 54.67 54.09 53.38 53.28 53.24 54.09 52.70 52.71 50.74 51.01 51.69 52.49
53.05 52.60 51.84 52.11 52.45 53.94 56.36 56.03 56.94 56.14 53.90 54.90 54.00 54.05 53.86 51.04 50.43 53.37 53.22 53.87 53.31 54.13 54.56 53.22 52.59 52.27 53.88 51.31 49.67 48.52 49.16 50.09 50.89
52.76 51.95 51.20 50.94 51.05 50.99 51.65 52.67 53.55 55.05 54.56 55.07 54.84 53.97 53.73 52.67 50.35 49.54 50.92 53.27 53.43 53.32 53.56 52.57 52.86 52.86 53.22 52.90 51.34 48.11 48.09 48.65 49.61
MSLP
1015.44 1015.64 1015.85 1016.08 1016.37 1016.53 1016.65 1016.69 1016.72 1016.81 1016.78 1016.67 1016.48 1016.24 1015.86 1015.55 1015.44 1015.82 1015.94 1015.85 1015.78 1015.62 1015.60 1015.54 1015.41 1015.29 1015.22 1015.06 1014.93 1014.76 1014.68 1014.61 1014.50
1015.72 1016.00 1016.13 1016.49 1016.69 1016.86 1016.96 1017.08 1017.12 1017.17 1017.18 1017.11 1016.78 1016.65 1016.70 1016.63 1016.66 1016.66 1016.76 1016.70 1016.48 1016.41 1016.28 1016.20 1016.05 1016.00 1015.90 1015.75 1015.65 1015.59 1015.50 1015.39 1015.34
1016.00 1016.27 1016.55 1016.77 1017.11 1017.30 1017.40 1017.36 1017.48 1017.80 1017.60 1017.55 1017.35 1016.94 1016.60 1016.69 1017.08 1017.39 1017.50 1017.45 1017.14 1017.03 1017.00 1016.87 1016.80 1016.72 1016.54 1016.49 1016.45 1016.42 1016.37 1016.26 1016.19
1016.30 1016.60 1016.93 1017.20 1017.51 1017.73 1017.86 1017.78 1017.90 1018.06 1018.14 1017.97 1017.68 1017.39 1017.02 1016.99 1017.24 1017.83 1018.15 1018.21 1018.02 1017.89 1017.80 1017.63 1017.50 1017.34 1017.24 1017.23 1017.14 1017.17 1017.15 1017.10 1017.02
1016.62 1016.88 1017.38 1017.62 1018.00 1018.14 1018.31 1018.30 1018.42 1018.51 1018.59 1018.35 1018.01 1017.77 1017.71 1017.77 1018.24 1018.63 1018.91 1018.79 1018.74 1018.62 1018.54 1018.46 1018.38 1018.25 1018.12 1018.03 1018.02 1018.07 1017.96 1017.93 1017.82
1016.74 1016.97 1017.64 1018.09 1018.39 1018.57 1018.72 1018.72 1018.95 1018.98 1018.85 1018.72 1018.32 1018.34 1018.10 1018.41 1018.95 1019.52 1019.67 1019.46 1019.42 1019.50 1019.40 1019.26 1019.27 1019.18 1019.05 1019.00 1018.95 1018.85 1018.81 1018.76 1018.64
1016.48 1017.40 1017.97 1018.41 1018.78 1018.95 1019.10 1019.11 1019.05 1018.67 1018.54 1018.46 1018.41 1018.22 1018.51 1019.13 1019.84 1020.27 1020.45 1020.20 1020.18 1020.18 1020.23 1020.07 1020.04 1020.09 1020.08 1020.05 1019.93 1019.81 1019.74 1019.61 1019.47
1016.77 1017.63 1018.03 1018.65 1018.83 1019.05 1019.14 1019.16 1018.36 1018.26 1018.35 1018.25 1018.20 1018.49 1018.91 1019.70 1020.45 1020.90 1020.85 1020.87 1020.77 1020.93 1020.89 1020.86 1020.79 1020.76 1020.76 1020.76 1020.71 1020.82 1020.67 1020.61 1020.45
1016.61 1017.03 1017.39 1018.12 1018.20 1018.64 1018.56 1018.71 1018.73 1018.63 1018.44 1018.47 1018.53 1018.73 1019.27 1020.05 1020.93 1021.53 1021.39 1021.33 1021.38 1021.26 1021.48 1021.45 1021.45 1021.43 1021.38 1021.54 1021.50 1021.53 1021.41 1021.37 1021.31
1016.34 1016.78 1017.32 1017.81 1018.42 1018.56 1018.89 1019.04 1018.77 1018.68 1018.65 1018.83 1018.92 1019.13 1019.46 1020.29 1021.21 1021.96 1021.87 1021.85 1021.72 1021.84 1022.05 1022.00 1021.96 1022.05 1022.07 1022.14 1022.07 1022.17 1022.08 1022.10 1022.03
1016.44 1016.98 1017.47 1018.06 1018.49 1018.65 1018.92 1019.01 1019.09 1019.29 1019.32 1019.51 1019.61 1019.87 1020.17 1020.68 1021.15 1021.95 1022.45 1022.50 1022.27 1022.15 1022.37 1022.47 1022.44 1022.44 1022.49 1022.52 1022.52 1022.53 1022.63 1022.63 1022.56
1016.59 1017.01 1017.64 1018.13 1018.36 1018.53 1018.78 1019.07 1019.26 1019.54 1019.91 1020.08 1020.24 1020.45 1020.59 1020.97 1021.37 1021.89 1022.46 1022.98 1023.08 1022.76 1022.86 1022.86 1022.87 1022.92 1022.92 1023.08 1023.01 1022.96 1022.93 1023.07 1023.22
1016.76 1017.16 1017.62 1018.06 1018.42 1018.69 1018.98 1019.45 1019.66 1019.81 1020.03 1020.29 1020.60 1020.88 1020.94 1021.20 1021.54 1022.02 1022.06 1022.51 1023.13 1023.67 1023.53 1023.43 1023.41 1023.33 1023.26 1023.19 1023.35 1023.52 1023.40 1023.44 1023.48
1016.75 1017.25 1017.66 1018.08 1018.64 1018.99 1019.28 1019.56 1019.83 1020.02 1020.25 1020.45 1020.86 1020.99 1021.21 1021.53 1021.78 1022.18 1022.80 1023.00 1022.89 1023.31 1023.84 1023.80 1023.87 1023.88 1023.71 1023.70 1023.66 1023.65 1023.69 1023.68 1023.62
1016.78 1017.34 1017.93 1018.35 1018.96 1019.19 1019.47 1019.78 1020.02 1020.14 1020.47 1020.51 1020.88 1021.33 1021.54 1021.80 1021.75 1021.82 1022.39 1023.03 1023.19 1023.22 1023.38 1023.78 1024.03 1024.08 1024.11 1024.11 1024.15 1024.11 1024.04 1024.06 1024.03
1016.89 1017.49 1017.99 1018.44 1019.07 1019.30 1019.57 1019.95 1020.16 1020.39 1020.58 1020.82 1021.15 1021.40 1021.36 1021.47 1021.77 1021.89 1022.17 1022.71 1023.07 1023.30 1023.38 1023.25 1023.44 1024.25 1024.45 1024.58 1024.54 1024.49 1024.39 1024.36 1024.37
1017.44 1018.10 1018.34 1018.62 1019.03 1019.39 1019.68 1019.85 1020.46 1020.80 1020.92 1020.85 1020.92 1021.13 1021.51 1021.47 1021.65 1022.00 1021.99 1022.31 1022.84 1022.93 1023.21 1023.05 1023.46 1023.94 1024.26 1024.86 1024.88 1024.77 1024.63 1024.52 1024.51
1017.40 1018.02 1018.76 1018.80 1018.92 1019.61 1020.03 1020.38 1020.63 1021.09 1021.36 1021.31 1021.17 1021.08 1021.06 1021.02 1021.66 1021.88 1022.12 1022.14 1022.42 1022.66 1022.91 1023.05 1023.26 1023.54 1023.94 1024.46 1024.84 1024.94 1024.98 1024.84 1024.64
1017.79 1018.50 1019.27 1019.75 1020.18 1020.58 1020.69 1020.91 1021.03 1021.32 1021.76 1021.84 1021.67 1021.52 1021.48 1021.21 1021.33 1021.48 1021.74 1021.98 1022.07 1022.35 1023.05 1023.07 1023.28 1023.55 1023.79 1024.30 1024.52 1024.71 1024.89 1024.85 1024.60
1018.17 1018.26 1019.05 1020.24 1020.94 1021.69 1021.47 1021.63 1021.55 1021.78 1021.94 1021.73 1021.81 1021.97 1021.86 1021.71 1021.51 1021.29 1021.58 1021.85 1022.12 1022.18 1022.85 1023.39 1023.57 1023.42 1023.55 1023.96 1024.31 1024.67 1024.89 1024.85 1024.77
Wind_Speed
13 14 15 17 16 15 15 15 15 15 15 14 13 15 20 16 14 13 17 15 22 23 22 21 22 23 22 22 23 25 25 25 25
13 13 16 16 15 15 15 15 15 15 14 13 12 13 16 11 12 13 13 15 23 23 23 22 23 23 22 23 23 25 26 26 25
14 12 15 16 15 14 14 15 15 14 15 13 11 11 6 13 13 13 12 19 22 25 25 25 24 24 23 22 24 25 24 25 25
14 14 13 16 14 13 13 14 14 15 14 13 11 11 15 13 12 13 9 18 21 22 23 24 24 25 26 25 24 23 24 24 24
12 14 13 15 14 13 13 13 14 14 12 10 6 2 12 12 12 10 9 18 19 21 22 23 23 23 24 25 26 26 25 24 24
11 14 12 14 13 12 13 14 14 14 8 2 4 8 7 11 9 8 16 19 20 21 21 22 22 23 25 24 25 25 25 25 25
12 12 13 14 13 12 13 12 13 12 7 4 6 7 11 10 10 8 15 19 20 21 21 22 23 23 23 23 23 24 24 25 26
7 7 8 8 10 7 8 6 5 7 5 5 7 9 10 8 8 10 15 18 19 20 21 21 22 22 23 23 23 23 23 23 24
9 7 8 7 5 7 5 4 6 7 8 9 9 10 10 8 7 9 14 17 18 20 20 21 22 22 23 23 23 23 23 23 23
7 7 6 5 5 6 6 6 5 6 7 7 8 9 12 12 7 6 12 14 17 18 18 19 21 21 22 22 22 22 23 22 22
6 7 6 6 6 6 6 6 6 5 6 6 8 8 8 11 11 8 8 13 15 17 17 17 18 19 19 19 20 20 20 21 21
8 7 7 7 7 9 7 7 6 6 5 6 6 6 9 7 10 9 7 8 13 14 14 15 15 16 17 17 18 18 18 19 19
8 7 7 7 6 6 6 5 5 5 5 5 5 5 5 7 8 5 5 5 7 9 12 12 12 13 14 15 15 15 16 16 17
8 7 7 8 6 6 5 5 5 5 5 5 5 5 4 5 6 7 5 4 3 6 7 9 9 10 11 12 12 12 13 13 13
8 6 7 8 6 5 5 7 5 5 5 4 5 4 3 2 3 6 5 5 4 3 3 6 6 8 9 10 10 11 11 12 12
8 6 8 7 6 7 7 5 5 4 4 4 3 2 4 6 5 3 4 6 5 4 3 2 4 6 10 10 9 10 10 11 12
9 6 5 5 5 7 6 6 4 3 3 4 5 4 4 4 4 4 4 5 4 4 4 4 3 2 4 4 6 8 9 10 11
9 9 5 5 4 4 4 4 4 2 2 4 2 2 3 5 4 6 5 6 4 5 4 4 3 2 3 3 7 7 7 8 9
11 11 8 8 6 5 4 3 1 3 2 2 5 6 5 3 3 5 6 5 5 5 3 3 3 4 1 3 5 3 5 7 8
8 11 10 7 5 3 6 4 2 2 3 1 1 3 4 6 5 4 5 3 3 3 3 5 3 4 1 2 6 3 3 5 7
Wind_Direction
132 118 116 107 101 94 88 84 79 72 67 63 45 49 54 38 59 58 56 56 61 65 68 69 67 63 60 59 57 56 58 56 55
135 120 119 113 105 96 92 86 83 80 74 65 51 45 79 61 52 56 55 57 63 64 67 66 67 70 64 61 61 58 56 56 56
126 120 120 113 100 98 94 92 86 79 77 70 46 17 21 98 86 62 57 55 60 61 63 65 66 66 67 66 62 60 58 56 55
123 115 118 109 105 99 98 96 93 88 81 80 62 29 44 63 65 69 58 60 62 62 60 64 64 62 62 61 63 65 61 58 55
122 114 118 110 105 100 100 99 95 94 89 97 102 101 89 81 71 66 57 65 67 66 62 61 62 62 63 62 61 60 60 61 57
145 100 116 107 104 103 104 104 106 100 101 133 248 265 81 76 74 74 69 74 72 69 66 64 61 59 58 58 58 59 58 57 56
119 109 116 109 108 108 111 125 145 141 125 131 234 90 88 79 79 76 75 78 78 75 73 72 70 67 63 58 55 53 52 52 51
127 136 141 128 145 126 139 175 184 113 98 98 87 92 88 84 79 78 82 81 79 76 75 73 71 70 67 65 63 59 56 51 50
146 161 160 148 155 142 152 114 119 124 131 120 112 99 99 97 92 75 78 82 81 81 77 74 72 70 68 64 61 59 56 55 54
148 148 147 148 137 151 128 143 131 123 102 102 105 102 103 98 93 83 72 85 85 80 77 76 74 70 67 65 63 60 56 53 50
162 154 147 140 165 144 154 141 117 116 110 95 88 95 92 110 118 108 69 60 81 81 79 76 76 74 72 69 65 62 58 55 53
162 164 152 163 162 159 151 134 147 111 114 123 107 106 107 105 117 124 117 91 53 67 72 72 71 69 68 65 65 62 60 55 49
159 164 162 160 162 154 148 142 143 142 134 135 115 121 123 120 113 116 119 127 114 71 60 63 66 66 63 68 62 57 54 51 47
164 165 156 161 152 161 160 166 160 159 157 136 140 140 137 131 132 127 114 86 95 127 105 88 66 61 62 61 60 54 47 43 39
163 161 163 156 165 165 171 169 173 169 163 156 149 144 144 144 193 147 167 132 151 129 134 166 98 81 70 60 56 49 41 32 23
162 165 169 157 172 170 184 172 182 178 175 152 154 176 199 189 193 187 203 150 178 180 175 204 148 127 101 68 54 39 24 12 2
153 143 155 154 178 176 198 162 167 178 208 206 194 193 187 236 219 204 220 207 181 209 211 181 134 76 88 94 70 40 17 5 354
140 154 166 184 185 172 190 158 207 155 228 278 303 247 257 162 170 214 216 224 191 217 200 201 168 150 92 181 112 46 10 353 346
127 113 80 47 41 21 40 26 70 24 205 227 251 276 293 308 171 196 208 217 228 198 209 246 187 223 185 135 137 86 1 341 337
134 121 106 95 89 57 41 358 267 227 284 191 318 280 288 285 284 278 191 177 229 262 221 205 248 256 209 290 99 77 336 320 320